Weather observations for the past three days for
Kaltag, Kaltag Airport
Metric (Imperial)
Date Time (akdt) Wind (kph) Vis. (km) Weather Sky Cond. Temperature (ºC) Relative Humidity Wind Chill (°C) Heat Index (°C) Pressure Precipitation (cm)
Air Dwpt 6 hour altimeter (cm) sea level (mb) 1 hr 3 hr 6 hr
Max. Min.
21 07:53 Calm 16.09 Mostly Cloudy BKN070 16.1 9.4 65% 76.07 1014.1
21 06:53 SW 6 16.09 Fair CLR 12.2 7.8 75% 76.05 1014.1
21 05:53 SW 7 16.09 Fair CLR 11.7 6.7 72% 76.07 1014.2
21 04:53 SW 6 16.09 Fair CLR 11.7 6.7 72% 76.07 1014.2
21 03:53 Calm 16.09 Fair CLR 12.8 6.7 21.1 11.7 67% 76.07 1014.2
21 02:53 NW 6 16.09 Fair CLR 14.4 5 53% 76.05 1014.1
21 01:53 Calm 16.09 Fair CLR 15 5.6 54% 76.05 1013.9
21 00:53 N 6 16.09 Fair CLR 15.6 -3.9 26% 76.05 1013.9
20 23:53 Vrbl 7 16.09 A Few Clouds FEW080 17.8 6.1 46% 76.02 1013.7
20 22:53 NE 11 16.09 Fair CLR 18.9 7.2 47% 76.02 1013.6
20 21:53 NE 9 16.09 Fair CLR 21.1 2.2 23.9 20.6 29% 76 1013.4
20 20:53 NE 11 16.09 Fair CLR 21.7 2.2 28% 76.02 1013.5
20 19:53 NE 13 16.09 Fair CLR 22.2 1.1 25% 76.02 1013.6
20 18:53 NE 9 16.09 Fair CLR 23.3 -1.1 20% 76.02 1013.6
20 17:53 NE 15 16.09 Fair CLR 23.3 0 21% 76.05 1014.2
20 16:53 NE 17 16.09 Fair CLR 23.3 5 31% 76.1 1014.8
20 15:53 NE 13 16.09 Fair CLR 22.8 2.8 22.8 16.1 27% 76.15 1015.4
20 14:53 E 11 16.09 Fair CLR 21.7 2.8 29% 76.2 1016.0
20 13:53 Vrbl 7 16.09 Fair CLR 22.2 5 33% 76.25 1016.7
20 12:53 NE 11 16.09 Fair CLR 21.1 0.6 26% 76.28 1017.1
20 11:53 N 7 16.09 Fair CLR 20 6.7 42% 76.3 1017.3
20 10:53 NE 9 16.09 Fair CLR 18.3 6.1 45% 76.33 1017.8
20 09:53 Calm 16.09 Fair CLR 16.7 3.3 16.7 6.7 41% 76.35 1017.9
20 08:53 SW 6 16.09 Overcast OVC110 12.2 6.1 67% 76.35 1018.2
20 07:53 SW 7 16.09 Mostly Cloudy BKN110 10.6 5.6 71% 76.35 1018.2
20 06:53 SW 6 16.09 Partly Cloudy SCT120 10 5 71% 76.35 1018.1
20 05:53 SW 7 16.09 Fair CLR 7.8 4.4 79% 7 76.35 1018.2
20 04:53 SW 7 16.09 Fair CLR 6.7 4.4 85% 6 76.35 1018.2
20 03:53 SW 9 16.09 Fair CLR 6.7 4.4 17.2 6.7 85% 5 76.35 1018.2
20 02:53 SW 6 16.09 Fair CLR 7.8 5 83% 76.35 1018.1
20 01:53 SW 6 16.09 Fair CLR 8.9 5.6 80% 76.35 1017.9
20 00:53 SW 7 16.09 Fair CLR 10 6.1 77% 9 76.33 1017.8
19 23:53 Calm 16.09 Fair CLR 12.8 6.7 67% 76.3 1017.6
19 22:53 Calm 16.09 Fair CLR 16.7 6.7 52% 76.28 1017.3
19 21:53 Calm 16.09 Fair CLR 16.7 5 18.9 16.1 46% 76.28 1017.1
19 20:53 Calm 16.09 Fair CLR 16.7 5 46% 76.25 1016.8
19 19:53 Vrbl 7 16.09 Partly Cloudy SCT055 18.3 4.4 40% 76.25 1016.8
19 18:53 Vrbl 7 16.09 A Few Clouds FEW070 16.1 6.7 54% 76.25 1016.9
19 17:53 E 7 16.09 Overcast SCT047 OVC070 17.2 6.7 50% 76.28 1017.2
19 16:53 E 6 16.09 Overcast FEW046 OVC065 16.7 6.7 52% 76.28 1017.1
19 15:53 SW 9 16.09 Overcast BKN060 OVC080 16.7 7.2 18.3 12.8 54% 76.3 1017.3
19 14:53 E 11 16.09 Partly Cloudy SCT039 16.1 7.8 58% 76.28 1017.2
19 13:53 Vrbl 6 16.09 Partly Cloudy FEW033 SCT055 15.6 8.3 62% 76.28 1017.2
19 12:53 Calm 16.09 Mostly Cloudy FEW044 BKN060 15.6 8.3 62% 76.28 1017.0
19 11:53 Calm 16.09 Overcast OVC049 13.3 8.3 72% 76.25 1016.8
19 10:53 Calm 16.09 Overcast SCT023 BKN034 OVC055 13.3 8.3 72% 76.23 1016.3
19 09:53 Vrbl 6 16.09 Overcast FEW015 OVC060 12.8 9.4 12.8 10 80% 76.2 1016.1
19 08:53 Calm 16.09 Overcast FEW070 OVC095 12.2 10 87% 76.17 1015.7
19 07:53 Calm 16.09 Overcast SCT013 OVC060 10.6 9.4 92% 76.15 1015.3
19 06:53 Calm 16.09 Overcast OVC060 10.6 9.4 92% 76.12 1014.9
19 05:53 SW 6 16.09 Overcast OVC070 10 9.4 96% 76.1 1014.6
19 04:53 W 6 16.09 Overcast BKN070 OVC090 10.6 9.4 92% 76.07 1014.3
19 03:53 SW 6 16.09 Overcast FEW065 OVC100 10.6 9.4 16.7 10.6 92% 76.05 1013.9 0.03 0.1
19 02:53 Calm 16.09 Light Rain SCT065 OVC090 11.1 9.4 89% 76.02 1013.7 0.08
19 01:53 SW 9 16.09 Overcast FEW050 BKN075 OVC100 12.2 8.3 77% 76 1013.3
19 00:53 SW 7 16.09 Fair CLR 12.8 8.3 74% 75.92 1012.4
18 23:53 SW 11 16.09 Fair CLR 13.9 0 39% 75.87 1011.7
18 22:53 SW 6 16.09 Partly Cloudy SCT080 15.6 -25 4% 75.84 1011.2
18 21:53 Calm 12.87 Fair CLR 16.7 0 23.9 16.1 32% 75.79 1010.6
18 19:53 SW 15 16.09 A Few Clouds FEW120 20 5 38% 75.72 1009.5
18 18:53 SW 15 16.09 Partly Cloudy SCT100 21.7 5 34% 75.69 1009.2
18 17:53 SW 9 9.66 Partly Cloudy with Haze SCT075 21.7 1.7 27% 75.67 1009.0
18 16:53 W 13 16.09 A Few Clouds FEW070 22.8 2.2 26% 75.69 1009.2
18 15:53 SW 11 16.09 Partly Cloudy FEW065 SCT080 22.8 5 23.9 15 32% 75.69 1009.2
18 14:53 Vrbl 9 9.66 Partly Cloudy with Haze SCT070 SCT090 22.2 4.4 31% 75.69 1009.3
18 13:53 S 15 14.48 A Few Clouds FEW060 22.2 3.3 29% 75.72 1009.4
18 12:53 Vrbl 9 16.09 Partly Cloudy SCT046 20.6 6.1 39% 75.74 1009.9
18 11:53 Vrbl 6 16.09 Fair CLR 18.3 7.8 51% 75.77 1010.3
18 10:53 SW 9 16.09 Fair CLR 17.2 6.7 50% 75.79 1010.5
18 09:53 SW 11 16.09 A Few Clouds FEW075 15 5 15.6 11.1 51% 75.79 1010.4
18 08:53 SW 6 16.09 Mostly Cloudy BKN085 14.4 5.6 56% 75.79 1010.4
Date Time (akdt) Wind (kph) Vis. (km) Weather Sky Cond. Air Dwpt Max. Min. Relative Humidity Wind Chill (°C) Heat Index (°C) altimeter (cm) sea level (mb) 1 hr 3 hr 6 hr
6 hour
Temperature (ºC) Pressure Precipitation (cm)